This is the latest recevied weather packets stored in our database for station/object E22FEY-1. If no packets are shown the sender has not sent any weather packets the latest 10 day(s).
| Time | Temp. | Humidity | Pressure | Rain* | Wind** | Luminosity | Snow |
|---|---|---|---|---|---|---|---|
| 1777875790 | 39.44° C | 38% | 1008 hPa | - | - | 0 W/m² | - |
| 1777874865 | 40° C | 39% | 1008 hPa | - | - | 0 W/m² | - |
| 1777873941 | 40° C | 40% | 1008 hPa | - | - | 0 W/m² | - |
| 1777873017 | 40° C | 40% | 1008 hPa | - | - | 0 W/m² | - |
| 1777872092 | 39.44° C | 42% | 1009 hPa | - | - | 0 W/m² | - |
| 1777871168 | 38.33° C | 44% | 1009 hPa | - | - | 0 W/m² | - |
| 1777870243 | 38.89° C | 43% | 1009 hPa | - | - | 0 W/m² | - |
| 1777869319 | 38.33° C | 45% | 1009 hPa | - | - | 0 W/m² | - |
| 1777868395 | 39.44° C | 42% | 1009 hPa | - | - | 0 W/m² | - |
| 1777867471 | 39.44° C | 41% | 1010 hPa | - | - | 0 W/m² | - |
| 1777866547 | 39.44° C | 42% | 1010 hPa | - | - | 0 W/m² | - |
| 1777865622 | 38.33° C | 44% | 1010 hPa | - | - | 0 W/m² | - |
| 1777864698 | 38.33° C | 44% | 1010 hPa | - | - | 0 W/m² | - |
| 1777863774 | 40° C | 41% | 1010 hPa | - | - | 0 W/m² | - |
| 1777862850 | 40° C | 40% | 1010 hPa | - | - | 0 W/m² | - |
| 1777861925 | 40° C | 40% | 1010 hPa | - | - | 0 W/m² | - |
| 1777861001 | 40.56° C | 40% | 1010 hPa | - | - | 0 W/m² | - |
| 1777860077 | 40° C | 41% | 1010 hPa | - | - | 0 W/m² | - |
| 1777859153 | 40.56° C | 42% | 1010 hPa | - | - | 0 W/m² | - |
| 1777858229 | 41.11° C | 40% | 1010 hPa | - | - | 0 W/m² | - |
| 1777857305 | 41.11° C | 40% | 1010 hPa | - | - | 0 W/m² | - |
| 1777856381 | 41.67° C | 40% | 1010 hPa | - | - | 0 W/m² | - |
| 1777855456 | 42.78° C | 38% | 1010 hPa | - | - | 0 W/m² | - |
| 1777854532 | 42.22° C | 40% | 1010 hPa | - | - | 0 W/m² | - |
| 1777853608 | 39.44° C | 45% | 1009 hPa | - | - | 0 W/m² | - |
* Rain since midnight (hover to see other rain measurements)
** Current wind speed in m/s (hover to see current wind gust speed)